Saint Ignace, MI

11:00 AM EST on December 09, 2016 (GMT -0500)
Mackinac Island

Weather History for KMCD - September, 2014

Change the Weather History Date:

Monday, September 8, 2014

  Actual Average Record
Temperature  
Mean Temperature 63 °F -  
Max Temperature 72 °F 68 °F 80 °F (2002)
Min Temperature 54 °F 55 °F 42 °F (1979)
Degree Days  
Heating Degree Days 2    
Growing Degree Days 13 (Base 50)    
Moisture  
Dew Point 55 °F    
Average Humidity 77    
Maximum Humidity 99    
Minimum Humidity 53    
Precipitation  
Precipitation 0.01 in - - ()
Sea Level Pressure  
Sea Level Pressure 30.11 in    
Wind  
Wind Speed 5 mph (South)    
Max Wind Speed 8 mph    
Max Gust Speed -    
Visibility 10 miles    
Events      
Averages and records for this station are not official NWS values.
T = Trace of Precipitation, MM = Missing Value Source: NWS Daily Summary

Daily Weather History Graph

Daily Weather History Graph

Search for Another Location

Airport or City:

Trip Planner

Search our weather history database for the weather conditions in past years. The results will help you decide how hot, cold, wet, or windy it might be!

Date:

Astronomy

Sep. 08, 2014 Rise Set
Actual Time 7:08 AM EDT 8:03 PM EDT
Civil Twilight 6:37 AM EDT 8:33 PM EDT
Nautical Twilight 6:01 AM EDT 9:09 PM EDT
Astronomical Twilight 5:23 AM EDT 9:47 PM EDT
Moon 7:41 PM EDT (9/8) 6:31 AM EDT (9/8)
Length of Visible Light 13h 55m
Length of Day
12h 55m
Full, 100% of the Moon is Illuminated
Sep 8
Full
Sep 8
Full
Sep 15
Last Quarter
Sep 24
New
Oct 1
First Quarter

Hourly Weather History & Observations

Time (EDT) Temp. Dew Point Humidity Pressure Visibility Wind Dir Wind Speed Gust Speed Precip Events Conditions
12:20 AM 62.8 °F 54.1 °F 73% 30.13 in 10.0 mi SSW 6.9 mph - N/A   Clear
12:39 AM 61.7 °F 54.1 °F 76% 30.13 in 10.0 mi SSW 5.8 mph - N/A   Clear
12:59 AM 59.5 °F 54.1 °F 82% 30.13 in 10.0 mi SSW 6.9 mph - N/A   Clear
1:20 AM 60.4 °F 54.1 °F 80% 30.13 in 10.0 mi SSW 5.8 mph - N/A   Clear
1:39 AM 57.9 °F 54.0 °F 87% 30.14 in 10.0 mi SW 5.8 mph - N/A   Clear
1:59 AM 58.3 °F 54.1 °F 86% 30.14 in 10.0 mi SW 5.8 mph - N/A   Clear
2:20 AM 59.2 °F 54.0 °F 83% 30.13 in 10.0 mi SSW 6.9 mph - N/A   Clear
2:39 AM 61.7 °F 53.8 °F 75% 30.14 in 10.0 mi SSW 5.8 mph - N/A   Clear
2:59 AM 58.3 °F 53.6 °F 84% 30.14 in 10.0 mi SSW 5.8 mph - N/A   Clear
3:20 AM 56.5 °F 53.4 °F 89% 30.14 in 10.0 mi South 6.9 mph - N/A   Clear
3:39 AM 56.3 °F 54.5 °F 94% 30.15 in 10.0 mi South 5.8 mph - N/A   Clear
3:59 AM 56.3 °F 55.2 °F 96% 30.15 in 10.0 mi South 6.9 mph - N/A   Clear
4:20 AM 57.4 °F 55.8 °F 94% 30.15 in 10.0 mi South 6.9 mph - N/A   Clear
4:39 AM 58.1 °F 54.7 °F 88% 30.15 in 10.0 mi South 6.9 mph - N/A   Clear
5:00 AM 57.7 °F 54.5 °F 89% 30.15 in 10.0 mi South 6.9 mph - N/A   Clear
5:19 AM 59.2 °F 54.5 °F 84% 30.14 in 10.0 mi South 6.9 mph - N/A   Clear
5:40 AM 57.0 °F 53.8 °F 89% 30.15 in 10.0 mi South 4.6 mph - 0.01 in   Clear
5:59 AM 55.9 °F 54.9 °F 96% 30.15 in 10.0 mi SSW 5.8 mph - 0.01 in   Clear
6:19 AM 54.9 °F 54.3 °F 98% 30.15 in 10.0 mi South 6.9 mph - N/A   Clear
6:40 AM 55.0 °F 54.7 °F 99% 30.15 in 10.0 mi SSE 5.8 mph - N/A   Clear
6:59 AM 54.5 °F 53.8 °F 97% 30.16 in 10.0 mi SSE 5.8 mph - N/A   Clear
7:19 AM 56.3 °F 55.4 °F 97% 30.16 in 10.0 mi SSE 8.1 mph - N/A   Clear
7:40 AM 56.8 °F 55.4 °F 95% 30.16 in 10.0 mi SSE 8.1 mph - N/A   Clear
7:59 AM 57.6 °F 55.6 °F 93% 30.16 in 10.0 mi SSE 8.1 mph - N/A   Clear
8:19 AM 58.3 °F 56.3 °F 93% 30.17 in 10.0 mi South 8.1 mph - N/A   Clear
8:40 AM 59.9 °F 55.4 °F 85% 30.16 in 10.0 mi South 6.9 mph - N/A   Clear
8:59 AM 60.8 °F 55.4 °F 82% 30.16 in 10.0 mi South 5.8 mph - N/A   Clear
9:20 AM 61.9 °F 55.0 °F 78% 30.16 in 10.0 mi South 4.6 mph - N/A   Clear
9:39 AM 62.4 °F 54.9 °F 76% 30.15 in 10.0 mi South 5.8 mph - N/A   Clear
9:59 AM 63.7 °F 54.7 °F 72% 30.15 in 10.0 mi South 4.6 mph - N/A   Clear
10:20 AM 64.2 °F 55.2 °F 73% 30.15 in 10.0 mi South 4.6 mph - N/A   Clear
10:39 AM 65.7 °F 54.9 °F 68% 30.15 in 10.0 mi South 5.8 mph - N/A   Clear
10:59 AM 66.6 °F 55.2 °F 67% 30.14 in 10.0 mi SSE 4.6 mph - N/A   Clear
11:20 AM 67.5 °F 55.2 °F 65% 30.13 in 10.0 mi SSE 5.8 mph - N/A   Clear
11:39 AM 68.7 °F 55.4 °F 62% 30.13 in 10.0 mi South 4.6 mph - N/A   Clear
12:00 PM 69.3 °F 55.4 °F 61% 30.13 in 10.0 mi SSE 3.5 mph - N/A   Clear
12:19 PM 70.0 °F 56.1 °F 61% 30.13 in 10.0 mi SSE 4.6 mph - N/A   Clear
12:39 PM 70.7 °F 55.9 °F 59% 30.12 in 10.0 mi SSE 8.1 mph - N/A   Clear
1:19 PM 71.1 °F 56.1 °F 59% 30.12 in 10.0 mi SSE 6.9 mph - N/A   Mostly Cloudy
1:40 PM 68.2 °F 59.5 °F 74% 30.11 in 10.0 mi NE 4.6 mph - N/A   Mostly Cloudy
1:59 PM 70.2 °F 57.9 °F 65% 30.11 in 10.0 mi Calm Calm - N/A   Mostly Cloudy
2:20 PM 69.8 °F 59.7 °F 70% 30.11 in 10.0 mi Calm Calm - N/A   Overcast
2:40 PM 71.8 °F 60.1 °F 67% 30.10 in 10.0 mi Calm Calm - N/A   Overcast
3:00 PM 71.1 °F 57.9 °F 63% 30.09 in 10.0 mi South 5.8 mph - N/A   Mostly Cloudy
3:19 PM 71.8 °F 55.6 °F 57% 30.09 in 10.0 mi Calm Calm - N/A   Mostly Cloudy
3:40 PM 72.7 °F 55.2 °F 54% 30.08 in 10.0 mi Calm Calm - N/A   Scattered Clouds
4:00 PM 72.5 °F 54.3 °F 53% 30.07 in 10.0 mi South 4.6 mph - N/A   Scattered Clouds
4:19 PM 72.0 °F 56.7 °F 58% 30.06 in 10.0 mi South 4.6 mph - N/A   Scattered Clouds
4:36 PM 70.7 °F 56.5 °F 61% 30.06 in 10.0 mi WNW 4.6 mph - N/A   Mostly Cloudy
4:56 PM 69.8 °F 57.6 °F 65% 30.06 in 10.0 mi WNW 4.6 mph - N/A   Mostly Cloudy
5:16 PM 68.9 °F 57.7 °F 68% 30.06 in 10.0 mi WNW 3.5 mph - N/A   Mostly Cloudy
5:36 PM 69.1 °F 55.9 °F 63% 30.05 in 10.0 mi West 3.5 mph - N/A   Mostly Cloudy
6:16 PM 69.3 °F 55.2 °F 61% 30.05 in 10.0 mi West 3.5 mph - N/A   Mostly Cloudy
6:36 PM 68.7 °F 53.6 °F 58% 30.05 in 10.0 mi Calm Calm - N/A   Scattered Clouds
6:56 PM 67.1 °F 57.0 °F 70% 30.04 in 10.0 mi Calm Calm - N/A   Scattered Clouds
7:16 PM 65.5 °F 58.5 °F 78% 30.04 in 10.0 mi Calm Calm - N/A   Scattered Clouds
7:36 PM 63.5 °F 57.2 °F 80% 30.03 in 10.0 mi Calm Calm - N/A   Scattered Clouds
7:56 PM 63.5 °F 56.3 °F 77% 30.03 in 10.0 mi WSW 4.6 mph - N/A   Scattered Clouds
8:16 PM 61.9 °F 56.3 °F 82% 30.03 in 10.0 mi Calm Calm - N/A   Clear
8:36 PM 60.8 °F 54.9 °F 81% 30.03 in 10.0 mi Calm Calm - N/A   Clear
8:56 PM 60.1 °F 54.5 °F 82% 30.03 in 10.0 mi SE 3.5 mph - N/A   Clear
9:16 PM 60.1 °F 54.7 °F 82% 30.03 in 10.0 mi ESE 5.8 mph - N/A   Clear
9:36 PM 61.2 °F 54.7 °F 79% 30.04 in 10.0 mi SE 3.5 mph - N/A   Clear
9:56 PM 59.9 °F 54.5 °F 82% 30.04 in 10.0 mi SE 5.8 mph - N/A   Clear
10:16 PM 60.3 °F 54.5 °F 81% 30.04 in 10.0 mi SSE 3.5 mph - N/A   Clear
10:36 PM 60.1 °F 54.5 °F 82% 30.04 in 10.0 mi South 5.8 mph - N/A   Scattered Clouds
10:56 PM 60.3 °F 54.3 °F 81% 30.04 in 10.0 mi SSE 5.8 mph - N/A   Scattered Clouds
11:16 PM 62.6 °F 56.5 °F 80% 30.04 in 10.0 mi South 8.1 mph - N/A   Mostly Cloudy
11:36 PM 63.7 °F 55.8 °F 75% 30.05 in 10.0 mi South 6.9 mph - N/A   Mostly Cloudy
11:56 PM 63.9 °F 56.1 °F 76% 30.04 in 10.0 mi South 6.9 mph - N/A   Scattered Clouds